Theta_e
326 328 331 334 338 340 341 341 341 341 341 340 340 341 341 341 341 341 339 337 335 334 335 335 334 334 335 335 334 333 326 326
325 327 330 333 337 338 338 338 338 338 337 337 338 338 339 339 339 338 336 335 335 335 335 333 334 335 333 333 334 332 329 325
324 326 329 331 332 335 336 335 335 335 333 333 334 336 337 336 335 335 335 335 334 333 334 334 335 334 330 334 332 329 326 328
325 326 328 329 331 333 334 333 332 331 330 331 334 335 335 334 334 334 334 333 333 333 333 333 333 331 305 310 323 331 326 325
326 326 330 332 331 332 333 331 329 330 330 331 332 333 333 333 332 332 332 333 335 334 334 333 334 334 305 306 311 331 326 326
328 329 332 333 332 334 333 329 329 329 330 330 331 331 331 331 331 331 333 334 335 335 334 334 335 327 304 303 309 332 328 326
331 333 334 333 333 334 330 327 329 329 329 330 330 330 330 329 329 332 333 334 333 334 334 334 334 331 303 303 315 330 325 323
331 333 335 335 334 333 328 328 328 329 329 329 330 330 330 330 331 332 334 333 332 331 333 335 319 329 301 303 316 325 322 319
333 335 333 334 334 332 326 328 328 329 330 331 331 331 330 331 332 334 334 333 333 333 332 333 329 327 321 302 308 326 322 321
332 332 332 333 333 329 326 328 330 331 332 331 331 331 330 330 333 333 334 335 333 333 332 328 327 327 309 304 305 310 313 325
333 332 331 332 331 328 328 331 331 332 332 331 331 331 331 332 333 333 334 336 335 331 330 328 325 323 317 299 300 302 305 324
332 330 328 327 328 328 330 332 332 332 332 331 331 331 331 332 332 335 336 335 331 329 328 327 325 321 319 322 319 321 306 310
331 328 326 326 327 329 331 332 332 331 332 331 331 331 332 331 334 332 336 336 326 330 331 329 324 322 320 316 318 325 324 314
332 329 327 324 325 328 330 331 332 333 331 330 328 329 330 330 330 329 298 299 298 299 300 316 327 309 301 300 299 298 299 300
328 331 331 329 325 326 329 330 332 333 330 332 330 326 328 328 329 331 328 314 296 295 297 297 305 304 297 296 296 297 297 303
328 329 331 332 331 328 328 329 331 332 333 313 330 329 329 327 329 330 328 330 328 327 300 301 295 295 295 294 296 302 316 317
324 325 326 330 330 331 331 328 330 330 332 330 329 329 330 325 327 328 327 327 329 330 324 308 298 292 292 294 299 324 323 324
312 314 318 321 323 326 330 329 330 330 330 312 318 330 331 330 327 327 328 328 328 331 330 327 315 312 315 313 322 324 323 325
307 308 310 312 313 322 326 331 330 328 328 331 313 330 330 329 329 326 325 326 327 328 330 325 305 330 328 325 328 329 329 329
303 302 302 305 307 316 322 324 329 328 328 329 329 328 329 329 330 330 328 326 325 326 329 321 294 327 330 330 330 331 332 332
Wind_Speed
5 3 6 10 13 14 15 15 16 16 16 16 14 13 13 12 12 11 10 10 10 9 9 7 6 4 6 5 5 6 7 8
4 2 6 9 13 14 15 15 16 16 16 15 14 12 12 11 10 10 10 11 10 9 6 6 3 3 2 4 4 6 8 7
5 3 6 8 12 14 15 15 15 14 14 14 13 12 11 11 11 11 10 10 9 8 6 6 4 2 5 3 3 5 6 7
7 6 8 11 14 15 15 15 14 13 14 14 13 12 11 11 11 11 10 9 7 7 6 5 4 5 5 4 1 8 7 5
10 11 12 13 14 14 15 15 14 14 13 13 11 10 11 11 11 11 11 8 7 6 6 5 4 7 4 3 1 7 7 4
13 13 13 13 13 15 15 14 14 14 13 11 10 9 10 9 10 11 9 8 7 5 5 5 5 6 4 1 4 7 5 5
13 13 15 14 16 16 15 15 14 13 12 10 9 9 10 10 12 11 9 7 6 5 5 4 6 6 3 1 1 6 6 5
14 15 17 18 17 16 15 15 13 12 11 10 9 10 11 11 11 10 8 7 8 5 6 6 7 7 3 1 2 5 5 4
16 17 16 17 17 16 15 14 13 10 10 11 10 10 10 10 10 8 7 7 7 5 6 7 5 5 5 3 5 5 5 5
16 16 16 17 17 16 16 14 12 9 10 11 11 11 9 9 9 8 7 6 7 6 7 6 5 5 5 4 6 5 1 6
15 15 17 17 17 15 16 14 12 10 11 11 11 11 9 8 7 7 6 7 6 7 6 6 5 4 4 7 8 7 10 8
14 16 17 17 16 16 15 14 13 12 12 12 11 10 8 7 5 5 5 5 5 5 5 5 6 5 4 6 6 9 12 10
12 15 15 16 17 17 15 14 13 12 11 11 10 9 7 7 4 4 3 6 4 4 5 6 7 6 5 7 8 8 9 10
11 15 15 16 17 17 15 14 13 13 12 8 8 9 8 7 7 8 14 12 12 11 12 2 7 11 13 9 10 14 17 13
5 13 15 15 16 16 15 14 14 13 13 10 8 7 7 6 8 7 8 7 12 12 11 11 8 13 13 11 13 14 13 8
10 6 10 13 14 14 14 14 14 13 11 8 8 7 7 7 8 8 7 8 8 7 11 9 10 12 12 13 14 11 6 3
13 12 4 9 11 12 12 13 14 14 10 9 8 7 7 7 6 7 7 9 9 8 8 6 9 11 9 10 14 8 8 5
14 13 11 11 11 6 4 10 13 12 10 9 5 7 8 7 7 5 6 6 7 9 7 10 8 6 5 5 7 6 6 7
15 13 10 9 9 11 6 4 9 10 9 8 3 7 8 7 7 7 6 5 6 7 9 10 11 9 10 10 9 10 9 8
14 14 14 11 12 9 11 11 9 6 8 10 8 7 7 6 6 6 6 6 6 6 9 8 9 8 9 9 9 7 7 7
Wind_Direction
44 130 159 139 140 134 135 134 129 126 122 123 126 129 130 132 134 141 143 146 150 154 162 175 185 187 218 235 247 180 163 181
63 143 154 143 143 138 135 129 130 129 129 128 128 131 133 136 139 146 150 153 153 152 166 168 146 189 327 293 312 206 193 194
140 167 144 158 141 134 132 131 129 129 128 126 129 133 132 136 142 150 149 153 158 156 164 137 127 67 35 5 119 131 154 160
143 172 167 151 146 143 136 133 132 134 133 132 137 136 135 136 145 147 157 155 162 151 143 126 102 68 46 358 343 132 136 140
154 182 175 158 155 141 142 137 140 140 136 139 139 139 138 147 153 156 157 152 140 157 135 124 93 93 56 41 303 123 134 140
155 191 167 164 151 152 141 148 146 145 142 141 145 153 145 150 161 158 153 143 159 158 139 105 88 84 62 74 327 100 111 132
161 174 165 153 163 149 150 153 153 151 145 146 151 147 149 152 153 152 150 148 144 167 138 111 90 95 77 144 251 123 110 118
155 168 156 158 156 152 157 151 158 157 142 145 144 148 153 158 154 161 158 167 169 166 133 86 64 113 100 39 72 100 99 95
157 156 156 156 153 159 160 160 163 145 141 139 143 143 153 155 161 165 170 189 142 157 129 92 103 106 118 66 97 121 132 131
157 157 153 154 157 159 159 168 152 142 139 146 137 147 158 151 162 161 176 171 172 161 134 121 110 109 64 97 106 114 154 127
159 154 151 157 160 163 159 164 149 151 144 137 143 157 148 145 155 175 172 180 171 166 173 131 125 107 93 83 96 97 71 104
162 149 155 156 160 162 162 155 164 148 143 145 146 153 147 142 152 159 188 166 164 159 152 131 130 117 124 128 120 116 98 91
162 154 155 157 159 158 159 162 157 143 146 147 155 138 163 147 117 64 137 77 28 165 145 149 148 142 159 150 146 147 136 118
179 156 152 156 160 156 157 168 157 143 151 167 160 148 153 153 145 127 54 48 42 35 33 60 117 116 135 132 115 103 119 156
201 168 168 164 157 163 163 164 163 158 161 171 140 154 152 145 142 140 137 82 64 45 38 39 80 128 131 123 122 131 148 170
115 154 171 168 172 165 168 164 165 166 168 157 162 156 144 147 146 162 152 149 146 132 57 45 72 117 123 122 130 131 154 182
67 75 69 156 165 156 172 166 168 171 164 174 184 153 148 119 160 160 146 158 136 124 130 99 76 70 77 137 166 156 179 168
65 62 51 52 51 35 228 169 174 169 179 144 197 152 135 165 146 167 145 133 132 140 155 135 135 145 139 161 195 174 177 187
69 64 52 52 27 348 30 202 201 173 174 153 261 180 156 175 155 152 155 159 147 153 142 137 163 173 161 174 198 178 203 189
56 53 33 30 13 21 21 355 309 194 182 154 188 192 159 168 165 166 157 165 159 156 118 140 176 235 161 174 194 192 193 195